Content
SEND FEEDBACK

Daily
Averages
Monthly
Summary
United States of America

HALLOCK, MINNESOTA


Home > North America > United States > Minnesota
Elevation: 249 meters     Latitude: 48 46N     Longitude: 096 56W

WEATHER
 
SELECT A DAY
Number of Records: 445,746;   Date Range: 1/1/95 - 7/20/14
 
SHARE

PRINT THIS DATA

[ ← Previous Day ]
WEATHER ALMANAC - 13 FEBRUARY, 2013
[ Next Day → ]
[ °F ]   °C
Weather ElementAverageHighLow
Temperature-8.6 °C0 °C (3:34 pm) (5:54 am)
Dewpoint-10.1 °C-5 °C (2:34 pm) (7:00 pm)
Humidity90.7 %100 % (12:34 am)79 % (11:54 pm)
Barometer979 hPa1009.1 hPa (11:54 pm) (7:00 pm)
Wind Speed7.9 km/h20.4 km/h (7:53 pm)
Weather ElementAverage
Visibility11.7 km
Wind DirectionSSE (161.8 °)

Weather ElementTotal
Precipitation---
Heating Degree Days27.2 (Base 18.3)
Averaged from 71 records on 13 February, 2013
WEATHER CONDITIONS BREAKOUT
WIND DIRECTION BREAKOUT
WEATHER BY HOUR - 13 FEBRUARY, 2013
[ °F ]   °C
Local TimeTemperatureDewpointHumidityBarometerVisibilityWind DirectionWind SpeedGust SpeedPrecipitationEventsConditions
12:34 AM-12 °C-12 °C100 %1004.4 hPa16.1 kmSSW (210°)11.1 km/hClear
12:53 AM-11 °C-11 °C100 %1004.4 hPa16.1 kmSSW (200°)9.3 km/hClear
1:14 AM-9 °C-11 °C86 %1004.7 hPa16.1 kmSW (220°)5.6 km/hClear
1:34 AM-10 °C-11 °C93 %1004.7 hPa16.1 kmSW (220°)5.6 km/hClear
1:53 AM-10 °C-11 °C93 %1004.7 hPa16.1 kmSW (230°)5.6 km/hClear
2:14 AM-11 °C-11 °C100 %1004.4 hPa16.1 kmCalmScattered Clouds
2:34 AM-11 °C-12 °C92 %1004.4 hPa16.1 kmSouth (190°)5.6 km/hClear
2:53 AM-12 °C-12 °C100 %1004.4 hPa11.3 kmSouth (190°)7.4 km/hClear
3:14 AM-11 °C-12 °C92 %1004.1 hPa8 kmSouth (190°)5.6 km/hClear
3:33 AM-12 °C-13 °C92 %1004.1 hPa6.4 kmCalmClear
3:54 AM-13 °C-14 °C92 %1003.7 hPa2.9 kmCalmMostly Cloudy
4:13 AM-14 °C-16 °C85 %1003.7 hPa11.3 kmCalmOvercast
4:34 AM-14 °C-16 °C85 %1003.7 hPa0.8 kmSSE (150°)5.6 km/hFogLight Freezing Fog
4:54 AM-14 °C-16 °C85 %1003.7 hPa0.3 kmCalmFogLight Freezing Fog
5:13 AM-15 °C-16 °C92 %1003.7 hPa0.3 kmCalmFogLight Freezing Fog
5:34 AM-14 °C-15 °C92 %1003.4 hPa0.3 kmCalmFogLight Freezing Fog
5:54 AM-17.8 °C-17.8 °C0.3 kmSSE (160°)5.6 km/hFogLight Freezing Fog
6:13 AM-14 °C-15 °C92 %1003.4 hPaCalm (150°)FogLight Freezing Fog
6:34 AM-14 °C-15 °C92 %1003.4 hPa0.3 kmCalmFogLight Freezing Fog
6:54 AM-14 °C-15 °C92 %1003.4 hPa0.3 kmCalmFogLight Freezing Fog
7:12 AM-14 °C-15 °C92 %1003.4 hPa0.8 kmNorthFogLight Freezing Fog
7:34 AM-13 °C-14 °C92 %1003.4 hPa1.3 kmCalm (140°)SnowLight Snow
7:54 AM-12 °C-13 °C92 %1003 hPa2.4 kmSSE (160°)5.6 km/hSnowLight Snow
8:13 AM-12 °C-13 °C92 %1003 hPa1.9 kmCalmOvercast
8:34 AM-12 °C-13 °C92 %2.9 kmCalmOvercast
8:54 AM-12 °C-13 °C92 %1003.4 hPa16.1 kmCalmOvercast
9:12 AM-12 °C-13 °C92 %1003.4 hPaCalm
9:34 AM-11 °C-12 °C92 %1003.4 hPa1.3 kmCalmOvercast
9:51 AM-11 °C-12 °C92 %1003.4 hPa8 kmCalm
10:13 AM-10 °C-11 °C93 %1003.4 hPa11.3 kmCalmClear
10:34 AM-9 °C-11 °C86 %1003.4 hPa11.3 kmCalmClear
10:54 AM-9 °C-11 °C86 %1003 hPa8 kmSSE (160°)5.6 km/hSnowLight Snow
11:14 AM-9 °C-10 °C93 %1003 hPa8 kmSSE (160°)7.4 km/hClear
11:34 AM-8 °C-9 °C93 %1003.4 hPa8 kmSouth (170°)5.6 km/hClear
11:54 AM-8 °C-9 °C93 %1003.4 hPa11.3 kmCalmClear
12:14 PM-8 °C-8 °C100 %1003 hPa11.3 kmCalmClear
12:34 PM-7 °C-8 °C93 %1002.7 hPa11.3 kmCalmClear
12:54 PM-7 °C-7 °C100 %1002.7 hPa11.3 kmCalmClear
1:13 PM-6 °C-7 °C93 %1003 hPa16.1 kmCalmScattered Clouds
1:34 PM-6 °C-6 °C100 %1003 hPa16.1 kmNW (320°)7.4 km/hMostly Cloudy
1:53 PM-5 °C-6 °C93 %1003.4 hPa16.1 kmNW (310°)5.6 km/hOvercast
2:14 PM-4 °C-6 °C86 %1003.4 hPa16.1 kmNW (310°)5.6 km/hOvercast
2:34 PM-4 °C-5 °C93 %1003.4 hPa16.1 kmNW (320°)7.4 km/hOvercast
2:53 PM-5 °C-6 °C93 %1003.4 hPa16.1 kmNNW (340°)14.8 km/hOvercast
3:14 PM-5 °C-6 °C93 %1003.4 hPa16.1 kmNNW (330°)13 km/hOvercast
3:34 PM0 °C-17.8 °C1003.7 hPa16.1 kmNNW (340°)13 km/hOvercast
3:53 PM-5 °C-6 °C93 %1003.7 hPa16.1 kmNNW (330°)5.6 km/hMostly Cloudy
4:14 PM-5 °C-6 °C93 %1004.1 hPa16.1 kmNW (320°)7.4 km/hScattered Clouds
4:34 PM-5 °C-7 °C86 %1004.4 hPa16.1 kmNNW (330°)14.8 km/h
4:54 PM-6 °C-7 °C93 %1004.4 hPa16.1 kmNNW (340°)14.8 km/hScattered Clouds
5:12 PM-7 °C-8 °C93 %1004.7 hPa16.1 kmNorthClear
5:34 PM-6 °C-7 °C93 %1004.7 hPa16.1 kmNorth (350°)11.1 km/hMostly Cloudy
5:54 PM-6 °C-7 °C93 %1005.1 hPa16.1 kmNorth (350°)13 km/hOvercast
6:14 PM-6 °C-7 °C93 %1005.1 hPa16.1 kmNorth (350°)13 km/hOvercast
6:34 PM-6 °C-6 °C100 %1005.4 hPa16.1 kmNorth (350°)14.8 km/hOvercast
6:53 PM-5 °C-6 °C93 %1005.8 hPa16.1 kmNNW (340°)18.5 km/hOvercast
7:14 PM-4 °C-6 °C86 %1006.1 hPa16.1 kmNorth (350°)13 km/hOvercast
7:34 PM-4 °C-6 °C86 %1006.4 hPa16.1 kmNorth (350°)14.8 km/hOvercast
7:53 PM-4 °C-6 °C86 %1006.8 hPa16.1 kmNNW (340°)20.4 km/hOvercast
8:14 PM-4 °C-6 °C86 %1006.8 hPa16.1 kmNNW (340°)18.5 km/hOvercast
8:34 PM-4 °C-6 °C86 %1006.8 hPa16.1 kmNorth (350°)18.5 km/hOvercast
8:53 PM-4 °C-6 °C86 %1007.1 hPa16.1 kmNorth (360°)16.7 km/hOvercast
9:14 PM-4 °C-6 °C86 %1007.1 hPa16.1 kmNNE (20°)14.8 km/hOvercast
9:34 PM-5 °C-8 °C80 %1007.5 hPa16.1 kmNNE (20°)20.4 km/hOvercast
9:53 PM-6 °C-9 °C80 %1007.8 hPa16.1 kmNNE (20°)20.4 km/hOvercast
10:14 PM-7 °C-9 °C86 %1008.1 hPa16.1 kmNorth (10°)18.5 km/hOvercast
10:34 PM-7 °C-9 °C86 %1008.5 hPa16.1 kmNorth (10°)18.5 km/hOvercast
10:54 PM-7 °C-9 °C86 %1008.5 hPa16.1 kmNorth (360°)18.5 km/hOvercast
11:14 PM-7 °C-10 °C80 %1008.8 hPa16.1 kmNorth (360°)18.5 km/hOvercast
11:34 PM-7 °C-10 °C80 %1008.8 hPa16.1 kmNorth (360°)16.7 km/hOvercast
11:54 PM-8 °C-11 °C79 %1009.1 hPa16.1 kmNorth (10°)20.4 km/hOvercast
Hourly data recorded from KHCO, located 0 kilometers away from Hallock, Minnesota







STORIES FROM OUR PARTNERS